アトラス-アフリカーノ彗星

C/2019 F1 ( ATLAS-Africano )

English version
Home page
Updated on May 23, 2019

---------------------------------------------------------------------

・ プロフィール

発見日 2019年3月28日、29日
発見光度 18.3等、18.4等
発見者 Asteroid Terrestrial-Impact Last Alert System (ATLAS) search program, B. M. Africano (Mount Lemmon Survey)

・ 写真集

・ 軌道要素

Epoch 2021 July 5.0 TT = JDT 2459400.5
T 2021 June 22.99378 TT                                 MPCW
q   3.5960264            (2000.0)            P               Q
z  -0.0009561      Peri.  251.13415     +0.09424936     +0.85664981
 +/-0.0000742      Node    38.72540     -0.27687914     +0.51193863
e   1.0034382      Incl.   54.17244     -0.95627140     -0.06379615
From 417 observations 2019 Feb. 8-May 12, mean residual 0".4.

・ 星図

・ 光度変化

        m1 = 5.0 + 5 logΔ + 10.0 log r

---------------------------------------------------------------------

軌道要素はM.P.E.C. 2019-J142に掲載されたものです。
星図はステラナビゲータ Ver.10 (アストロアーツ) で作成したものです。
光度グラフはComet for Windowsで作成したものです。

---------------------------------------------------------------------

Copyright(C) Seiichi Yoshida (comet@aerith.net). All rights reserved.